Time,TemperatureF,DewpointF,PressureIn,WindDirection,WindDirectionDegrees,WindSpeedMPH,WindSpeedGustMPH,Humidity,HourlyPrecipIn,Conditions,Clouds,dailyrainin,SoftwareType,DateUTC
2013-02-06 00:00:00,27.2,24.7,29.12,NNW,338,0.9,0.9,90,0.00,,,0.00,WUHU216HW,2013-02-06 05:00:00,
2013-02-06 00:05:00,27.2,24.7,29.12,NNW,338,0.9,0.9,90,0.00,,,0.00,WUHU216HW,2013-02-06 05:05:00,
2013-02-06 00:30:00,27.4,25.1,29.14,North,0,1.8,1.8,91,0.00,,,0.00,WUHU216HW,2013-02-06 05:30:00,
2013-02-06 00:35:00,27.4,25.1,29.14,North,0,1.8,1.8,91,0.00,,,0.00,WUHU216HW,2013-02-06 05:35:00,
2013-02-06 01:00:00,27.4,24.8,29.14,North,0,0.0,0.0,90,0.00,,,0.00,WUHU216HW,2013-02-06 06:00:00,
2013-02-06 01:05:00,27.4,24.8,29.14,North,0,0.0,0.0,90,0.00,,,0.00,WUHU216HW,2013-02-06 06:05:00,
2013-02-06 01:30:00,27.4,24.8,29.15,North,0,0.9,0.9,90,0.00,,,0.00,WUHU216HW,2013-02-06 06:30:00,
2013-02-06 01:35:00,27.4,24.8,29.15,North,0,0.9,0.9,90,0.00,,,0.00,WUHU216HW,2013-02-06 06:35:00,
2013-02-06 02:00:00,27.7,24.9,29.16,North,0,0.0,0.0,89,0.00,,,0.00,WUHU216HW,2013-02-06 07:00:00,
2013-02-06 02:05:00,27.7,24.9,29.16,North,0,0.0,0.0,89,0.00,,,0.00,WUHU216HW,2013-02-06 07:05:00,
2013-02-06 02:30:00,27.7,24.9,29.18,NNE,23,1.1,1.1,89,0.00,,,0.00,WUHU216HW,2013-02-06 07:30:00,
2013-02-06 02:35:00,27.7,24.9,29.18,NNE,23,1.1,1.1,89,0.00,,,0.00,WUHU216HW,2013-02-06 07:35:00,
2013-02-06 03:00:00,27.7,24.3,29.19,North,0,1.1,1.1,87,0.00,,,0.00,WUHU216HW,2013-02-06 08:00:00,
2013-02-06 03:05:00,27.7,24.3,29.19,North,0,1.1,1.1,87,0.00,,,0.00,WUHU216HW,2013-02-06 08:05:00,
2013-02-06 03:30:00,27.9,23.9,29.20,WNW,293,1.8,1.8,85,0.00,,,0.00,WUHU216HW,2013-02-06 08:30:00,
2013-02-06 03:35:00,27.9,23.9,29.20,WNW,293,1.8,1.8,85,0.00,,,0.00,WUHU216HW,2013-02-06 08:35:00,
2013-02-06 04:00:00,27.9,24.2,29.20,NW,315,0.4,0.4,86,0.00,,,0.00,WUHU216HW,2013-02-06 09:00:00,
2013-02-06 04:05:00,27.9,24.2,29.20,NW,315,0.4,0.4,86,0.00,,,0.00,WUHU216HW,2013-02-06 09:05:00,
2013-02-06 04:30:00,27.7,24.7,29.23,North,0,0.9,0.9,88,0.00,,,0.00,WUHU216HW,2013-02-06 09:30:00,
2013-02-06 04:35:00,27.7,24.7,29.23,North,0,0.9,0.9,88,0.00,,,0.00,WUHU216HW,2013-02-06 09:35:00,
2013-02-06 05:00:00,27.9,24.9,29.24,WNW,293,1.8,1.8,88,0.00,,,0.00,WUHU216HW,2013-02-06 10:00:00,
2013-02-06 05:05:00,27.9,24.9,29.24,WNW,293,1.8,1.8,88,0.00,,,0.00,WUHU216HW,2013-02-06 10:05:00,
2013-02-06 05:30:00,27.9,24.9,29.25,WNW,293,0.9,0.9,88,0.00,,,0.00,WUHU216HW,2013-02-06 10:30:00,
2013-02-06 05:35:00,27.9,24.9,29.25,WNW,293,0.9,0.9,88,0.00,,,0.00,WUHU216HW,2013-02-06 10:35:00,
2013-02-06 06:00:00,27.9,25.1,29.27,North,0,1.6,1.6,89,0.00,,,0.00,WUHU216HW,2013-02-06 11:00:00,
2013-02-06 06:04:00,27.9,25.1,29.27,North,0,1.6,1.6,89,0.00,,,0.00,WUHU216HW,2013-02-06 11:04:00,
2013-02-06 06:30:00,27.9,25.4,29.29,NW,315,2.5,2.5,90,0.00,,,0.00,WUHU216HW,2013-02-06 11:30:00,
2013-02-06 06:35:00,27.9,25.4,29.29,NW,315,2.5,2.5,90,0.00,,,0.00,WUHU216HW,2013-02-06 11:35:00,
2013-02-06 07:00:00,28.1,25.0,29.30,WNW,293,3.4,3.4,88,0.00,,,0.00,WUHU216HW,2013-02-06 12:00:00,
2013-02-06 07:05:00,28.1,25.0,29.30,WNW,293,3.4,3.4,88,0.00,,,0.00,WUHU216HW,2013-02-06 12:05:00,
2013-02-06 07:30:00,28.3,24.6,29.30,SSE,158,0.9,0.9,86,0.00,,,0.00,WUHU216HW,2013-02-06 12:30:00,
2013-02-06 07:35:00,28.3,24.6,29.30,SSE,158,0.9,0.9,86,0.00,,,0.00,WUHU216HW,2013-02-06 12:35:00,
2013-02-06 08:00:00,28.4,24.8,29.33,NE,45,0.2,0.2,86,0.00,,,0.00,WUHU216HW,2013-02-06 13:00:00,
2013-02-06 08:05:00,28.4,24.8,29.33,NE,45,0.2,0.2,86,0.00,,,0.00,WUHU216HW,2013-02-06 13:05:00,
2013-02-06 08:30:00,28.4,24.5,29.34,NE,45,2.5,2.5,85,0.00,,,0.00,WUHU216HW,2013-02-06 13:30:00,
2013-02-06 08:35:00,28.4,24.5,29.34,NE,45,2.5,2.5,85,0.00,,,0.00,WUHU216HW,2013-02-06 13:35:00,
2013-02-06 09:00:00,28.6,24.7,29.36,NE,45,1.1,1.1,85,0.00,,,0.00,WUHU216HW,2013-02-06 14:00:00,
2013-02-06 09:04:00,28.6,24.7,29.36,NE,45,1.1,1.1,85,0.00,,,0.00,WUHU216HW,2013-02-06 14:04:00,
2013-02-06 09:30:00,28.8,23.9,29.36,East,90,1.3,1.3,82,0.00,,,0.00,WUHU216HW,2013-02-06 14:30:00,
2013-02-06 09:35:00,28.8,23.9,29.36,East,90,1.3,1.3,82,0.00,,,0.00,WUHU216HW,2013-02-06 14:35:00,
2013-02-06 10:00:00,29.7,23.9,29.37,NE,45,0.7,0.7,79,0.00,,,0.00,WUHU216HW,2013-02-06 15:00:00,
2013-02-06 10:05:00,29.7,23.9,29.37,NE,45,0.7,0.7,79,0.00,,,0.00,WUHU216HW,2013-02-06 15:05:00,
2013-02-06 10:30:00,29.2,23.5,29.39,ENE,68,1.8,1.8,79,0.00,,,0.00,WUHU216HW,2013-02-06 15:30:00,
2013-02-06 10:35:00,29.2,23.5,29.39,ENE,68,1.8,1.8,79,0.00,,,0.00,WUHU216HW,2013-02-06 15:35:00,
2013-02-06 11:00:00,28.6,22.6,29.41,SSW,203,1.6,1.6,78,0.00,,,0.00,WUHU216HW,2013-02-06 16:00:00,
2013-02-06 11:04:00,28.6,22.6,29.41,SSW,203,1.6,1.6,78,0.00,,,0.00,WUHU216HW,2013-02-06 16:04:00,
2013-02-06 11:30:00,27.7,22.6,29.42,SE,135,1.1,1.1,81,0.00,,,0.00,WUHU216HW,2013-02-06 16:30:00,
2013-02-06 11:35:00,27.7,22.6,29.42,SE,135,1.1,1.1,81,0.00,,,0.00,WUHU216HW,2013-02-06 16:35:00,
2013-02-06 12:00:00,29.2,23.1,29.41,NE,45,0.7,0.7,78,0.00,,,0.00,WUHU216HW,2013-02-06 17:00:00,
2013-02-06 12:05:00,29.2,23.1,29.41,NE,45,0.7,0.7,78,0.00,,,0.00,WUHU216HW,2013-02-06 17:05:00,
2013-02-06 12:30:00,31.7,23.4,29.41,ESE,113,2.2,2.2,71,0.00,,,0.00,WUHU216HW,2013-02-06 17:30:00,
2013-02-06 12:35:00,31.7,23.4,29.41,ESE,113,2.2,2.2,71,0.00,,,0.00,WUHU216HW,2013-02-06 17:35:00,
2013-02-06 13:00:00,30.2,21.2,29.42,ESE,113,0.2,0.2,69,0.00,,,0.00,WUHU216HW,2013-02-06 18:00:00,
2013-02-06 13:05:00,30.2,21.2,29.42,ESE,113,0.2,0.2,69,0.00,,,0.00,WUHU216HW,2013-02-06 18:05:00,
2013-02-06 13:30:00,33.1,23.3,29.42,ESE,113,1.1,1.1,67,0.00,,,0.00,WUHU216HW,2013-02-06 18:30:00,
2013-02-06 13:35:00,33.1,23.3,29.42,ESE,113,1.1,1.1,67,0.00,,,0.00,WUHU216HW,2013-02-06 18:35:00,
2013-02-06 14:00:00,32.2,20.4,29.41,NE,45,0.9,0.9,61,0.00,,,0.00,WUHU216HW,2013-02-06 19:00:00,
2013-02-06 14:05:00,32.2,20.4,29.41,NE,45,0.9,0.9,61,0.00,,,0.00,WUHU216HW,2013-02-06 19:05:00,
2013-02-06 14:30:00,32.0,20.5,29.42,ESE,113,1.3,1.3,62,0.00,,,0.00,WUHU216HW,2013-02-06 19:30:00,
2013-02-06 14:35:00,32.0,20.5,29.42,ESE,113,1.3,1.3,62,0.00,,,0.00,WUHU216HW,2013-02-06 19:35:00,
2013-02-06 15:00:00,31.0,18.7,29.44,ESE,113,1.1,1.1,60,0.00,,,0.00,WUHU216HW,2013-02-06 20:00:00,
2013-02-06 15:05:00,31.0,18.7,29.44,ESE,113,1.1,1.1,60,0.00,,,0.00,WUHU216HW,2013-02-06 20:05:00,
2013-02-06 15:30:00,31.0,18.7,29.43,SE,135,0.7,0.7,60,0.00,,,0.00,WUHU216HW,2013-02-06 20:30:00,
2013-02-06 15:35:00,31.0,18.7,29.43,SE,135,0.7,0.7,60,0.00,,,0.00,WUHU216HW,2013-02-06 20:35:00,
2013-02-06 16:00:00,31.0,18.7,29.44,ESE,113,0.9,0.9,60,0.00,,,0.00,WUHU216HW,2013-02-06 21:00:00,
2013-02-06 16:05:00,31.0,18.7,29.44,ESE,113,0.9,0.9,60,0.00,,,0.00,WUHU216HW,2013-02-06 21:05:00,
2013-02-06 16:30:00,31.9,19.2,29.45,NW,315,1.1,1.1,59,0.00,,,0.00,WUHU216HW,2013-02-06 21:30:00,
2013-02-06 16:35:00,31.9,19.2,29.45,NW,315,1.1,1.1,59,0.00,,,0.00,WUHU216HW,2013-02-06 21:35:00,
2013-02-06 17:00:00,31.9,18.4,29.45,ENE,68,0.2,0.2,57,0.00,,,0.00,WUHU216HW,2013-02-06 22:00:00,
2013-02-06 17:04:00,31.9,18.4,29.45,ENE,68,0.2,0.2,57,0.00,,,0.00,WUHU216HW,2013-02-06 22:04:00,
2013-02-06 17:30:00,29.2,17.0,29.46,SE,135,0.0,0.0,60,0.00,,,0.00,WUHU216HW,2013-02-06 22:30:00,
2013-02-06 17:35:00,29.2,17.0,29.46,SE,135,0.0,0.0,60,0.00,,,0.00,WUHU216HW,2013-02-06 22:35:00,
2013-02-06 18:00:00,27.4,16.0,29.46,SSE,158,0.0,0.0,62,0.00,,,0.00,WUHU216HW,2013-02-06 23:00:00,
2013-02-06 18:05:00,27.4,16.0,29.46,SSE,158,0.0,0.0,62,0.00,,,0.00,WUHU216HW,2013-02-06 23:05:00,
2013-02-06 18:30:00,25.7,14.5,29.47,SSE,158,0.0,0.0,62,0.00,,,0.00,WUHU216HW,2013-02-06 23:30:00,
2013-02-06 18:35:00,25.7,14.5,29.47,SSE,158,0.0,0.0,62,0.00,,,0.00,WUHU216HW,2013-02-06 23:35:00,
2013-02-06 19:00:00,24.8,14.3,29.47,SSE,158,0.0,0.0,64,0.00,,,0.00,WUHU216HW,2013-02-07 00:00:00,
2013-02-06 19:05:00,24.8,14.3,29.47,SSE,158,0.0,0.0,64,0.00,,,0.00,WUHU216HW,2013-02-07 00:05:00,
2013-02-06 19:30:00,24.1,14.3,29.48,SW,225,0.4,0.4,66,0.00,,,0.00,WUHU216HW,2013-02-07 00:30:00,
2013-02-06 19:35:00,24.1,14.3,29.48,SW,225,0.4,0.4,66,0.00,,,0.00,WUHU216HW,2013-02-07 00:35:00,
2013-02-06 20:00:00,23.2,14.2,29.48,West,270,0.2,0.2,68,0.00,,,0.00,WUHU216HW,2013-02-07 01:00:00,
2013-02-06 20:05:00,23.2,14.2,29.48,West,270,0.2,0.2,68,0.00,,,0.00,WUHU216HW,2013-02-07 01:05:00,
2013-02-06 20:30:00,23.0,14.0,29.50,NW,315,0.0,0.0,68,0.00,,,0.00,WUHU216HW,2013-02-07 01:30:00,
2013-02-06 20:35:00,23.0,14.0,29.50,NW,315,0.0,0.0,68,0.00,,,0.00,WUHU216HW,2013-02-07 01:35:00,
2013-02-06 21:00:00,22.3,13.7,29.49,WSW,248,0.0,0.0,69,0.00,,,0.00,WUHU216HW,2013-02-07 02:00:00,
2013-02-06 21:05:00,22.3,13.7,29.49,WSW,248,0.0,0.0,69,0.00,,,0.00,WUHU216HW,2013-02-07 02:05:00,
2013-02-06 21:30:00,22.1,13.9,29.49,West,270,0.0,0.0,70,0.00,,,0.00,WUHU216HW,2013-02-07 02:30:00,
2013-02-06 21:35:00,22.1,13.9,29.49,West,270,0.0,0.0,70,0.00,,,0.00,WUHU216HW,2013-02-07 02:35:00,
2013-02-06 22:00:00,22.3,14.7,29.50,WSW,248,0.0,0.0,72,0.00,,,0.00,WUHU216HW,2013-02-07 03:00:00,
2013-02-06 22:05:00,22.3,14.7,29.50,WSW,248,0.0,0.0,72,0.00,,,0.00,WUHU216HW,2013-02-07 03:05:00,
2013-02-06 22:30:00,21.8,14.4,29.49,WSW,248,0.0,0.0,73,0.00,,,0.00,WUHU216HW,2013-02-07 03:30:00,
2013-02-06 22:35:00,21.8,14.4,29.49,WSW,248,0.0,0.0,73,0.00,,,0.00,WUHU216HW,2013-02-07 03:35:00,
2013-02-06 23:00:00,21.8,14.8,29.48,SSE,158,0.0,0.0,74,0.00,,,0.00,WUHU216HW,2013-02-07 04:00:00,
2013-02-06 23:05:00,21.8,14.8,29.48,SSE,158,0.0,0.0,74,0.00,,,0.00,WUHU216HW,2013-02-07 04:05:00,
2013-02-06 23:30:00,21.8,15.0,29.46,South,180,0.2,0.2,75,0.00,,,0.00,WUHU216HW,2013-02-07 04:30:00,
2013-02-06 23:35:00,21.8,15.0,29.46,South,180,0.2,0.2,75,0.00,,,0.00,WUHU216HW,2013-02-07 04:35:00,